Location: Strawberry
(45.6646°N, 111.9596°W)
Time: 23:05:33
(UTC+00:00)

Courier 1B - Pass Details

Date: 12 October 2022
Orbit: 962 x 1209 km, 28.3° (Epoch: 03 December)

Event Time Altitude Azimuth Distance (km) Brightness Sun altitude
Rises 17:43:43 0° 220° (SW) 4,083 11.0 33.0°
Reaches altitude 10° 17:47:45 10° 202° (SSW) 3,135 10.8 33.3°
Maximum altitude 17:52:20 17° 165° (SSE) 2,659 11.5 33.7°
Drops below altitude 10° 17:56:54 10° 129° (SE) 3,127 11.2 34.0°
Sets 18:00:55 0° 110° (ESE) 4,069 11.3 34.3°
